This is the latest recevied weather packets stored in our database for station/object W4MLN-1. If no packets are shown the sender has not sent any weather packets the latest 10 day(s).
| Time | Temp. | Humidity | Pressure | Rain* | Wind** | Luminosity | Snow |
|---|---|---|---|---|---|---|---|
| 1777343687 | 12.78° C | 74% | 1021.7 hPa | 0 mm | - | 0 W/m² | - |
| 1777343387 | 12.78° C | 73% | 1021.7 hPa | 0 mm | - | 0 W/m² | - |
| 1777343087 | 12.78° C | 75% | 1021.8 hPa | 0 mm | - | 0 W/m² | - |
| 1777342787 | 13.33° C | 71% | 1021.7 hPa | 0 mm | - | 0 W/m² | - |
| 1777342488 | 12.78° C | 73% | 1021.7 hPa | 0 mm | - | 0 W/m² | - |
| 1777342187 | 12.78° C | 71% | 1021.7 hPa | 0 mm | - | 0 W/m² | - |
| 1777341888 | 12.78° C | 75% | 1021.7 hPa | 0 mm | - | 0 W/m² | - |
| 1777341587 | 12.78° C | 73% | 1021.7 hPa | 0 mm | - | 0 W/m² | - |
| 1777341288 | 12.78° C | 74% | 1021.6 hPa | 0 mm | - | 0 W/m² | - |
| 1777340987 | 13.33° C | 72% | 1021.4 hPa | 0 mm | - | 0 W/m² | - |
| 1777340685 | 12.78° C | 71% | 1021.4 hPa | 0 mm | - | 0 W/m² | - |
| 1777340384 | 13.33° C | 74% | 1021.5 hPa | 0 mm | - | 0 W/m² | - |
| 1777340082 | 12.78° C | 72% | 1021.4 hPa | 0 mm | - | 0 W/m² | - |
| 1777339782 | 12.78° C | 73% | 1021.4 hPa | 0 mm | - | 0 W/m² | - |
| 1777339482 | 12.78° C | 71% | 1021.4 hPa | 0 mm | - | 0 W/m² | - |
| 1777339182 | 12.78° C | 76% | 1021.5 hPa | 0 mm | - | 0 W/m² | - |
| 1777338883 | 12.78° C | 73% | 1021.4 hPa | 0 mm | - | 0 W/m² | - |
| 1777338582 | 12.78° C | 78% | 1021.3 hPa | 0 mm | - | 0 W/m² | - |
| 1777338283 | 12.78° C | 77% | 1021.4 hPa | 0 mm | - | 0 W/m² | - |
| 1777337982 | 13.33° C | 74% | 1021.3 hPa | 0 mm | - | 0 W/m² | - |
| 1777337683 | 13.33° C | 76% | 1021.2 hPa | 0 mm | - | 0 W/m² | - |
| 1777337380 | 13.33° C | 75% | 1021.2 hPa | 0 mm | - | 0 W/m² | - |
| 1777337079 | 13.33° C | 75% | 1021.3 hPa | 0 mm | - | 0 W/m² | - |
| 1777336777 | 13.33° C | 75% | 1021.2 hPa | 0 mm | - | 0 W/m² | - |
| 1777336477 | 13.89° C | 74% | 1021.1 hPa | 0 mm | - | 0 W/m² | - |
* Rain latest hour (hover to see other rain measurements)
** Current wind speed in m/s (hover to see current wind gust speed)